Погода в Конезаводском

Россия / Омская область     54°56′42″N   72°51′09″E
темп.,
°C
ветер,
м/с
пор.,
м/с
влажн.,
%
обл.,
%
осадки,
мм/ч
давл.,
гПа
погр.,
м
5 декабря, вс
вс500:00−2ююз51394100 0.0 1024281
03:00+1ююз61392100 0.0 1022451
06:00−1юз5139435 0.0 1021287
09:00−2юз61590100 0.0 1020309
12:000юз6159045 0.0 1020378
15:000юз6158994 0.0 1019390
18:00−1юз61590100 0.0 1018316
21:00−2юз6158966 0.0 1018318
6 декабря, пн
пн600:00−3юз5139097 0.0 1017260
03:00−5юз41191100 0.0 1017218
06:00−5юз3896100 0.3 1017180
09:00−3зюз2598100 1.0 1017184
12:00−2юз2498100 1.8 1016197
15:00−2юз3598100 0.9 1015270
18:00−2юз3797100 1.4 1014276
21:00−2з4797100 0.9 1013297
7 декабря, вт
вт700:00−4зсз5109483 1.2 1015428
03:00−8зсз5119589 0.1 1018355
06:00−13зсз71292100 0.1 1021423
09:00−17зсз512925 0.0 1026328
12:00−17зсз49935 0.0 1029305
15:00−17з37945 0.0 1031203
18:00−20з36985 0.0 103475
21:00−21з34995 0.0 103555
8 декабря, ср
ср800:00−22зюз34995 0.0 103651
03:00−22зюз36985 0.0 103773
06:00−22зюз37985 0.0 103789
09:00−22зюз37995 0.0 103883
12:00−20зюз35975 0.0 1038128
15:00−19з24955 0.0 103984
18:00−22зсз34995 0.0 104143
21:00−22з22985 0.0 104216
9 декабря, чт
чт900:00−23зюз229971 0.0 104332
03:00−20зюз3596100 0.0 104367
06:00−16юз3690100 0.0 1043148
09:00−14ююз4887100 0.0 1042217
12:00−11ююз41085100 0.0 1041263
15:00−9ююз61390100 0.3 1039424
18:00−8юз71495100 1.1 1038538
21:00−7юз61294100 0.8 1037431